Estación de Combarbala
Ultimos registro cada 15 minutos 84
| N° | Estación | Fecha / Hora | Temperatura | Humedad | Lluvia | Velocidad | Dirección | Radiación | Presion |
| 84 | Combarbala | 31-08-2026 20:45 | 13,3 | 71,4 | 0 | 0 | 222 | 0,6 | 915,4 |
| 83 | Combarbala | 31-08-2026 20:30 | 13,3 | 70,8 | 0 | 0 | 222 | 0,6 | 915,4 |
| 82 | Combarbala | 31-08-2026 20:15 | 13,3 | 72,4 | 0 | 0 | 222 | 0,6 | 915,5 |
| 81 | Combarbala | 31-08-2026 20:00 | 13,3 | 72,7 | 0 | 0 | 222 | 0,6 | 915,4 |
| 80 | Combarbala | 31-08-2026 19:45 | 13,9 | 68,2 | 0 | 0 | 222 | 0,6 | 915,2 |
| 79 | Combarbala | 31-08-2026 19:30 | 14,2 | 67,5 | 0 | 0 | 222 | 0,6 | 915,2 |
| 78 | Combarbala | 31-08-2026 19:15 | 14,4 | 65,4 | 0 | 0 | 222 | 0,6 | 915 |
| 77 | Combarbala | 31-08-2026 19:00 | 14,4 | 64,1 | 0 | 0 | 222 | 0,6 | 914,9 |
| 76 | Combarbala | 31-08-2026 18:45 | 14,6 | 63 | 0 | 0 | 222 | 0,6 | 915 |
| 75 | Combarbala | 31-08-2026 18:30 | 15,7 | 59,6 | 0 | 0 | 222 | 4,4 | 915 |
| 74 | Combarbala | 31-08-2026 18:15 | 16,7 | 56,3 | 0 | 0,5 | 234 | 9,4 | 914,9 |
| 73 | Combarbala | 31-08-2026 18:00 | 18,4 | 51 | 0 | 0,5 | 263 | 50,6 | 914,4 |
| 72 | Combarbala | 31-08-2026 17:45 | 18,7 | 50 | 0 | 0,5 | 254 | 105,6 | 914,4 |
| 71 | Combarbala | 31-08-2026 17:30 | 18,1 | 50,8 | 0 | 1 | 248 | 29,4 | 914,5 |
| 70 | Combarbala | 31-08-2026 17:15 | 18,4 | 49,3 | 0 | 1 | 233 | 26,9 | 914,4 |
| 69 | Combarbala | 31-08-2026 17:00 | 19,3 | 48,1 | 0 | 2 | 219 | 243,1 | 914,2 |
| 68 | Combarbala | 31-08-2026 16:45 | 19,1 | 50,3 | 0 | 2 | 244 | 289,4 | 914,2 |
| 67 | Combarbala | 31-08-2026 16:30 | 20,7 | 39,4 | 0 | 1 | 277 | 335,6 | 914,1 |
| 66 | Combarbala | 31-08-2026 16:15 | 21,3 | 37,9 | 0 | 1 | 260 | 381,9 | 913,9 |
| 65 | Combarbala | 31-08-2026 16:00 | 21 | 40,2 | 0 | 1,5 | 270 | 423,1 | 913,9 |
| 64 | Combarbala | 31-08-2026 15:45 | 21,3 | 40 | 0 | 0,5 | 305 | 463,1 | 913,9 |
| 63 | Combarbala | 31-08-2026 15:30 | 21,9 | 34,9 | 0 | 1 | 307 | 501,9 | 913,8 |
| 62 | Combarbala | 31-08-2026 15:15 | 21,2 | 36,9 | 0 | 1 | 279 | 538,1 | 913,9 |
| 61 | Combarbala | 31-08-2026 15:00 | 21 | 39,2 | 0 | 1 | 279 | 571,9 | 914 |
| 60 | Combarbala | 31-08-2026 14:45 | 21,4 | 38,5 | 0 | 1 | 286 | 601,9 | 914,2 |
| 59 | Combarbala | 31-08-2026 14:30 | 20,7 | 41,3 | 0 | 1 | 282 | 630,6 | 914,5 |
| 58 | Combarbala | 31-08-2026 14:15 | 20,4 | 41,5 | 0 | 1 | 278 | 653,1 | 914,5 |
| 57 | Combarbala | 31-08-2026 14:00 | 20,4 | 42,2 | 0 | 1 | 298 | 671,9 | 914,9 |
| 56 | Combarbala | 31-08-2026 13:45 | 20,2 | 44,4 | 0 | 1 | 281 | 688,1 | 915,1 |
| 55 | Combarbala | 31-08-2026 13:30 | 19,6 | 45,9 | 0 | 0,5 | 309 | 701,9 | 915,2 |
| 54 | Combarbala | 31-08-2026 13:15 | 19,4 | 47,7 | 0 | 1 | 302 | 711,9 | 915,8 |
| 53 | Combarbala | 31-08-2026 13:00 | 19,5 | 51,3 | 0 | 0,5 | 312 | 718,1 | 915,8 |
| 52 | Combarbala | 31-08-2026 12:45 | 18,8 | 51,6 | 0 | 0,5 | 306 | 720,6 | 916,1 |
| 51 | Combarbala | 31-08-2026 12:30 | 18,4 | 49,5 | 0 | 0,5 | 309 | 718,1 | 916,3 |
| 50 | Combarbala | 31-08-2026 12:15 | 17,9 | 54,2 | 0 | 0,5 | 314 | 714,4 | 916,5 |
| 49 | Combarbala | 31-08-2026 12:00 | 17,2 | 52,9 | 0 | 0,5 | 279 | 704,4 | 916,5 |
| 48 | Combarbala | 31-08-2026 11:45 | 17 | 51,8 | 0 | 0,5 | 272 | 694,4 | 916,7 |
| 47 | Combarbala | 31-08-2026 11:30 | 17,2 | 51,6 | 0 | 0,5 | 282 | 675,6 | 917 |
| 46 | Combarbala | 31-08-2026 11:15 | 18 | 53,4 | 0 | 0 | 288 | 655,6 | 917,1 |
| 45 | Combarbala | 31-08-2026 11:00 | 16,6 | 52,5 | 0 | 0,5 | 281 | 631,9 | 917,1 |
| 44 | Combarbala | 31-08-2026 10:45 | 16,5 | 52,1 | 0 | 0 | 288 | 603,1 | 917,1 |
| 43 | Combarbala | 31-08-2026 10:30 | 16,7 | 54,2 | 0 | 0 | 288 | 570,6 | 917,2 |
| 42 | Combarbala | 31-08-2026 10:15 | 15,3 | 60,1 | 0 | 0 | 288 | 536,9 | 917,1 |
| 41 | Combarbala | 31-08-2026 10:00 | 15,9 | 62,2 | 0 | 0 | 267 | 499,4 | 916,9 |
| 40 | Combarbala | 31-08-2026 09:45 | 14,5 | 64,9 | 0 | 0,5 | 250 | 460,6 | 916,9 |
| 39 | Combarbala | 31-08-2026 09:30 | 13,9 | 70,7 | 0 | 0 | 48 | 418,1 | 916,8 |
| 38 | Combarbala | 31-08-2026 09:15 | 13,4 | 72,2 | 0 | 0 | 51 | 373,1 | 916,5 |
| 37 | Combarbala | 31-08-2026 09:00 | 13 | 73,9 | 0 | 0 | 51 | 323,1 | 916,4 |
| 36 | Combarbala | 31-08-2026 08:45 | 12,2 | 79,5 | 0 | 0,5 | 51 | 273,1 | 916,3 |
| 35 | Combarbala | 31-08-2026 08:30 | 11,1 | 85,2 | 0 | 0,5 | 227 | 223,1 | 916,1 |
| 34 | Combarbala | 31-08-2026 08:15 | 11,7 | 84,5 | 0 | 0 | 229 | 176,9 | 916,1 |
| 33 | Combarbala | 31-08-2026 08:00 | 10,2 | 87,7 | 0 | 0 | 229 | 134,4 | 915,9 |
| 32 | Combarbala | 31-08-2026 07:45 | 8,9 | 92,1 | 0 | 0 | 229 | 93,1 | 915,9 |
| 31 | Combarbala | 31-08-2026 07:30 | 7,9 | 91,9 | 0 | 0 | 229 | 10,6 | 915,9 |
| 30 | Combarbala | 31-08-2026 07:15 | 8 | 92,7 | 0 | 0 | 132 | 5,6 | 915,9 |
| 29 | Combarbala | 31-08-2026 07:00 | 8,4 | 92,1 | 0 | 0 | 125 | 0,6 | 915,6 |
| 28 | Combarbala | 31-08-2026 06:45 | 8,7 | 92 | 0 | 0 | 125 | 0,6 | 915,8 |
| 27 | Combarbala | 31-08-2026 06:30 | 8,9 | 90,9 | 0 | 0 | 125 | 0,6 | 915,8 |
| 26 | Combarbala | 31-08-2026 06:15 | 9,1 | 87,9 | 0 | 0 | 126 | 0,6 | 915,8 |
| 25 | Combarbala | 31-08-2026 06:00 | 9,1 | 88,8 | 0 | 0,5 | 94 | 0,6 | 915,8 |
| 24 | Combarbala | 31-08-2026 05:45 | 8,5 | 92,7 | 0 | 0 | 65 | 0,6 | 915,6 |
| 23 | Combarbala | 31-08-2026 05:30 | 8,4 | 92,6 | 0 | 0 | 65 | 0,6 | 915,4 |
| 22 | Combarbala | 31-08-2026 05:15 | 8,5 | 91,1 | 0 | 0 | 65 | 0,6 | 915,6 |
| 21 | Combarbala | 31-08-2026 05:00 | 8,5 | 90,8 | 0 | 0 | 65 | 0,6 | 915,4 |
| 20 | Combarbala | 31-08-2026 04:45 | 8,6 | 88,8 | 0 | 0 | 66 | 0,6 | 915,5 |
| 19 | Combarbala | 31-08-2026 04:30 | 8,6 | 88,8 | 0,2 | 0 | 42 | 0,6 | 915,4 |
| 18 | Combarbala | 31-08-2026 04:15 | 8,5 | 89,6 | 0 | 0 | 348 | 0,6 | 915,3 |
| 17 | Combarbala | 31-08-2026 04:00 | 8,4 | 90,8 | 0,2 | 0 | 348 | 0,6 | 915,4 |
| 16 | Combarbala | 31-08-2026 03:45 | 8,2 | 90 | 0 | 0 | 348 | 0,6 | 915,3 |
| 15 | Combarbala | 31-08-2026 03:30 | 8,2 | 89,1 | 0 | 0 | 348 | 0,6 | 915,3 |
| 14 | Combarbala | 31-08-2026 03:15 | 8,3 | 89,8 | 0 | 0 | 348 | 0,6 | 915,2 |
| 13 | Combarbala | 31-08-2026 03:00 | 8,4 | 89,8 | 0,2 | 0 | 348 | 0,6 | 915 |
| 12 | Combarbala | 31-08-2026 02:45 | 8,2 | 88 | 0 | 0 | 348 | 0,6 | 914,9 |
| 11 | Combarbala | 31-08-2026 02:30 | 8 | 87,6 | 0,2 | 0 | 348 | 0,6 | 914,8 |
| 10 | Combarbala | 31-08-2026 02:15 | 8,1 | 88,1 | 0 | 0 | 348 | 0,6 | 915 |
| 9 | Combarbala | 31-08-2026 02:00 | 8,1 | 90,7 | 0,2 | 0 | 348 | 0,6 | 915 |
| 8 | Combarbala | 31-08-2026 01:45 | 8,2 | 91,1 | 1 | 0,5 | 341 | 0,6 | 915,1 |
| 7 | Combarbala | 31-08-2026 01:30 | 8,6 | 91,2 | 0,8 | 0 | 321 | 0,6 | 915,3 |
| 6 | Combarbala | 31-08-2026 01:15 | 8,9 | 88,5 | 0,4 | 0 | 305 | 0,6 | 915 |
| 5 | Combarbala | 31-08-2026 01:00 | 8,9 | 88,7 | 0,4 | 0 | 354 | 0,6 | 914,5 |
| 4 | Combarbala | 31-08-2026 00:45 | 8,9 | 86,6 | 0,4 | 0,5 | 3 | 0,6 | 915,1 |
| 3 | Combarbala | 31-08-2026 00:30 | 9,3 | 82,5 | 0 | 1,5 | 220 | 0,6 | 914,5 |
| 2 | Combarbala | 31-08-2026 00:15 | 10,1 | 77,1 | 0 | 0 | 324 | 0,6 | 913,8 |
| 1 | Combarbala | 31-08-2026 00:00 | 10,4 | 71,1 | 0 | 0 | 333 | 0,6 | 914,2 |